| time (UTC) | temp F | wind direction | speed MPH | gust MPH | rain 1hr in | rain 24hr in | rain mn in | humidity % | barometer mb |
| 20260505001541 | 49 | 0 | 1.0 | 4.0 | 0.00 | 0.00 | 0.00 | 78 | 1007.6 |
| 20260505000045 | 49 | 189 | 2.0 | 7.0 | 0.00 | 0.00 | 0.00 | 77 | 1007.5 |
| 20260504234539 | 50 | 0 | 1.0 | 5.0 | 0.00 | 0.00 | 0.00 | 76 | 1007.4 |
| 20260504233041 | 51 | 250 | 1.0 | 4.0 | 0.00 | 0.00 | 0.00 | 74 | 1007.1 |
| 20260504231536 | 52 | 175 | 1.0 | 5.0 | 0.00 | 0.00 | 0.00 | 72 | 1007.0 |
| 20260504230100 | 53 | 196 | 3.0 | 8.0 | 0.00 | 0.00 | 0.00 | 70 | 1006.8 |
| 20260504224556 | 54 | 225 | 2.0 | 4.0 | 0.00 | 0.00 | 0.00 | 68 | 1006.6 |
| 20260504223036 | 55 | 220 | 1.0 | 8.0 | 0.00 | 0.00 | 0.00 | 66 | 1006.6 |
| 20260504221535 | 57 | 202 | 1.0 | 5.0 | 0.00 | 0.00 | 0.00 | 64 | 1006.6 |
| 20260504220038 | 59 | 192 | 2.0 | 5.0 | 0.00 | 0.00 | 0.00 | 60 | 1006.7 |
| 20260504214546 | 62 | 163 | 3.0 | 6.0 | 0.00 | 0.00 | 0.00 | 56 | 1006.6 |
| 20260504213040 | 63 | 169 | 3.0 | 10.0 | 0.00 | 0.00 | 0.00 | 55 | 1006.5 |
| 20260504211541 | 64 | 163 | 2.0 | 7.0 | 0.00 | 0.00 | 0.00 | 55 | 1006.5 |
| 20260504210050 | 65 | 41 | 2.0 | 5.0 | 0.00 | 0.00 | 0.00 | 53 | 1006.3 |
| 20260504204548 | 65 | 101 | 2.0 | 6.0 | 0.00 | 0.00 | 0.00 | 52 | 1006.3 |
| 20260504203045 | 65 | 301 | 2.0 | 5.0 | 0.00 | 0.00 | 0.00 | 49 | 1006.3 |
| 20260504201547 | 64 | 279 | 3.0 | 8.0 | 0.00 | 0.00 | 0.00 | 50 | 1006.2 |
| 20260504200050 | 64 | 344 | 3.0 | 9.0 | 0.00 | 0.00 | 0.00 | 50 | 1006.2 |
| 20260504194539 | 63 | 348 | 1.0 | 5.0 | 0.00 | 0.00 | 0.00 | 52 | 1006.3 |
| 20260504193037 | 62 | 200 | 2.0 | 5.0 | 0.00 | 0.00 | 0.00 | 54 | 1006.4 |
| 20260504191552 | 60 | 0 | 1.0 | 4.0 | 0.00 | 0.00 | 0.00 | 61 | 1006.7 |
| 20260504190042 | 58 | 237 | 1.0 | 3.0 | 0.00 | 0.00 | 0.00 | 60 | 1006.9 |
| 20260504184541 | 58 | 209 | 2.0 | 7.0 | 0.00 | 0.00 | 0.00 | 58 | 1006.7 |
| 20260504183038 | 58 | 236 | 2.0 | 8.0 | 0.00 | 0.00 | 0.00 | 58 | 1006.6 |
| 20260504181535 | 57 | 205 | 3.0 | 8.0 | 0.00 | 0.00 | 0.00 | 61 | 1006.8 |
| 20260504180034 | 57 | 221 | 1.0 | 8.0 | 0.00 | 0.00 | 0.00 | 61 | 1006.8 |
| 20260504174541 | 58 | 179 | 5.0 | 13.0 | 0.00 | 0.02 | 0.00 | 57 | 1006.5 |
| 20260504173039 | 58 | 148 | 8.0 | 20.0 | 0.00 | 0.02 | 0.00 | 54 | 1006.4 |
| 20260504171539 | 61 | 225 | 8.0 | 20.0 | 0.00 | 0.02 | 0.00 | 51 | 1006.3 |
| 20260504081539 | 36 | 0 | 0.0 | 0.0 | 0.00 | 0.33 | 0.00 | 86 | 1008.7 |
| 20260504044543 | 38 | 0 | 0.0 | 0.0 | 0.00 | 0.34 | 0.00 | 77 | 1008.3 |
| 20260504043053 | 39 | 0 | 0.0 | 2.0 | 0.00 | 0.34 | 0.00 | 76 | 1008.4 |
| 20260504041536 | 39 | 0 | 0.0 | 2.0 | 0.00 | 0.34 | 0.00 | 74 | 1008.4 |
| 20260504040034 | 41 | 0 | 0.0 | 1.0 | 0.00 | 0.34 | 0.00 | 72 | 1008.3 |
| 20260504034547 | 42 | 0 | 0.0 | 3.0 | 0.00 | 0.34 | 0.34 | 68 | 1008.2 |
| 20260504033040 | 43 | 256 | 0.0 | 4.0 | 0.00 | 0.34 | 0.34 | 64 | 1008.1 |
| 20260504031549 | 43 | 286 | 2.0 | 7.0 | 0.00 | 0.34 | 0.34 | 63 | 1008.0 |
| 20260504030050 | 44 | 0 | 3.0 | 10.0 | 0.00 | 0.34 | 0.34 | 62 | 1007.9 |
| 20260504024539 | 44 | 309 | 3.0 | 8.0 | 0.00 | 0.34 | 0.34 | 62 | 1007.9 |
| 20260504023035 | 44 | 302 | 1.0 | 7.0 | 0.00 | 0.34 | 0.34 | 61 | 1007.8 |
| 20260504021547 | 44 | 281 | 1.0 | 5.0 | 0.00 | 0.34 | 0.34 | 60 | 1007.7 |
| 20260504020040 | 45 | 261 | 1.0 | 9.0 | 0.00 | 0.34 | 0.34 | 59 | 1007.6 |
| 20260504014540 | 45 | 0 | 1.0 | 9.0 | 0.00 | 0.34 | 0.34 | 58 | 1007.4 |
| 20260504013038 | 45 | 304 | 2.0 | 9.0 | 0.00 | 0.34 | 0.34 | 58 | 1007.4 |
| 20260504011538 | 45 | 0 | 1.0 | 5.0 | 0.00 | 0.34 | 0.34 | 57 | 1007.2 |
| 20260504010036 | 46 | 296 | 2.0 | 11.0 | 0.00 | 0.34 | 0.34 | 56 | 1006.9 |
| 20260504004546 | 46 | 0 | 2.0 | 6.0 | 0.00 | 0.34 | 0.34 | 55 | 1006.7 |
| 20260504003040 | 46 | 308 | 3.0 | 9.0 | 0.00 | 0.34 | 0.34 | 53 | 1006.4 |